[[{"header":{"parameterUnit":"m.s-1","parameterCategory":1,"la1":30.2991,"la2":30.254,"lo1":-89.0895,"lo2":-89.0444,"dy":0.0017,"dx":0.0017,"nx":28,"ny":28,"refTime":"2023-10-15T09:00:00:Z","depth":0,"parameterNumber":2,"parameterNumberName":"U-component_of_WINDS"},"data":[0,0,0,0,0,0,0,0,0,0,0,0,0,0,0,0,0,0,0,0,0,0,0,0,0,0,0,0,0,0,0,0,0,0,0,0,0,0,0,0,0,0,0,0,0,0,0,0,0,0,0,0,0,0,0,0,0,0,1.8622,1.8622,0,1.8607,1.8607,1.8606,1.8592,1.8592,1.8591,1.8591,1.8574,1.8573,1.8573,0,0,0,0,0,0,0,0,0,0,0,0,0,1.8637,1.8637,1.8622,1.8622,1.8622,1.8607,1.8607,1.8606,1.8592,1.8591,1.8591,1.8591,1.8574,1.8573,1.8573,0,0,0,0,0,0,0,0,0,0,0,0,0,1.8627,1.8637,1.8622,1.8612,1.8612,1.8607,1.8607,1.8606,1.8592,1.8591,1.8591,1.8591,1.8574,1.8573,1.8573,1.8576,0,0,1.8572,1.8571,0,0,0,0,0,0,0,0,1.8628,1.8627,1.8614,1.8613,1.8612,1.8601,1.8606,1.8596,1.8592,1.8599,1.8591,1.8591,1.8583,1.8582,1.8579,1.8575,1.8574,1.8572,1.8571,1.8571,1.8571,0,0,0,0,0,0,0,1.8628,1.8627,1.8616,1.8614,1.8613,1.8609,1.8607,1.8604,1.8593,1.8599,1.8597,1.8596,1.8582,1.858,1.8579,1.8574,1.8572,1.8571,1.8571,1.8571,1.8572,1.8572,0,0,0,0,0,0,1.8631,1.8628,1.8616,1.8615,1.8619,1.8609,1.8607,1.8605,1.8593,1.8591,1.8596,1.8595,1.8581,1.8579,1.8578,1.8581,1.8571,1.8571,1.857,1.8572,1.8572,1.8572,0,0,0,0,0,0,1.8631,1.863,1.8617,1.8621,1.8619,1.8609,1.8607,1.8605,1.8602,1.8591,1.8589,1.8596,1.858,1.8579,1.8577,1.858,1.8571,1.857,1.8571,1.8572,1.8572,1.8586,0,0,0,0,0,0,1.8632,1.863,1.8631,1.8621,1.8619,1.8616,1.8607,1.8604,1.8602,1.86,1.859,1.8588,1.858,1.8578,1.8576,1.8579,1.857,1.8571,1.8571,1.8572,1.8585,1.8587,1.8588,0,0,0,0,0,1.8632,1.8635,1.8631,1.863,1.862,1.8616,1.8615,1.8606,1.8602,1.8603,1.8596,1.8588,1.858,1.8577,1.8576,1.8579,1.8571,1.8571,1.8572,1.8584,1.8586,1.8588,0,0,0,0,0,0,1.8644,1.8634,1.8629,1.8629,1.8624,1.8614,1.8614,1.8609,1.8604,1.8603,1.8592,1.859,1.8589,1.8584,1.8581,1.8581,1.8574,1.8575,1.8584,1.8586,1.8588,1.8588,1.8569,0,0,0,0,0,1.8647,1.8645,1.8636,1.8637,1.8634,1.8625,1.8623,1.8617,1.8611,1.8608,1.8601,1.8595,1.8591,1.8588,1.8584,1.8585,1.8582,1.8586,1.8588,1.8589,1.8589,1.8589,1.8591,1.8574,1.8574,1.8574,0,0,1.8652,1.8646,1.8646,1.8639,1.8634,1.8632,1.8623,1.8621,1.8619,1.8608,1.8605,1.86,1.8593,1.8592,1.8592,1.8588,1.8593,1.859,1.8591,1.859,1.859,1.8592,1.8593,1.8575,1.8575,1.8575,0,0,1.8661,1.8657,1.8657,1.8653,1.8646,1.864,1.864,1.8632,1.8628,1.8626,1.8617,1.8615,1.8609,1.8604,1.86,1.8609,1.8602,1.8608,1.8616,1.8616,1.8617,1.8618,1.8621,1.8622,1.8609,1.8609,1.8609,0,1.8668,1.8665,1.8658,1.8656,1.8654,1.8645,1.8645,1.8641,1.8633,1.8631,1.8627,1.862,1.8614,1.8612,1.8615,1.8612,1.8612,1.8609,1.8618,1.8619,1.862,1.8622,1.8623,1.8609,1.8609,1.8609,1.8609,0,1.8674,1.8673,1.8674,1.8667,1.8665,1.8664,1.8656,1.8655,1.865,1.8644,1.8643,1.8636,1.863,1.863,1.8624,1.8628,1.8625,1.862,1.8613,1.8622,1.8624,1.8625,1.861,1.861,1.861,1.861,0,0,1.8689,1.8679,1.868,1.8677,1.867,1.8668,1.8667,1.8663,1.8662,1.8657,1.8656,1.8652,1.8647,1.8643,1.8637,1.8638,1.8645,1.8632,1.8632,1.8634,1.8648,1.8652,1.8653,1.8641,1.8641,1.8641,1.8649,0,1.8695,1.8694,1.8688,1.8688,1.8686,1.8678,1.8678,1.8673,1.8669,1.8666,1.8661,1.8658,1.8652,1.865,1.865,1.8644,1.8648,1.8644,1.8639,1.8639,1.864,1.8654,1.8658,1.8665,1.865,1.865,1.865,0,1.8703,1.87,1.87,1.8694,1.8693,1.8692,1.8688,1.8686,1.8681,1.8678,1.8675,1.8668,1.8667,1.8662,1.866,1.8657,1.8656,1.8653,1.8653,1.8651,1.8644,1.8652,1.8667,1.8668,1.8651,1.8651,1.8651,0,1.8713,1.8708,1.8708,1.8706,1.8699,1.8699,1.8696,1.8691,1.8689,1.8685,1.8684,1.868,1.8677,1.8675,1.8668,1.8664,1.8667,1.866,1.8663,1.8663,1.8663,1.8663,1.8677,1.8663,1.8663,1.8663,1.8663,0,1.872,1.8721,1.8713,1.8712,1.8713,1.8706,1.8706,1.8703,1.8698,1.8697,1.869,1.8689,1.868,1.8678,1.8673,1.8672,1.8671,1.8668,1.8667,1.8668,1.8669,1.8666,1.8665,1.8664,1.8664,1.8664,1.8663,0,1.8731,1.8725,1.8725,1.8718,1.8717,1.8717,1.8712,1.8711,1.8707,1.8705,1.8705,1.8698,1.8695,1.8688,1.8684,1.868,1.8681,1.8678,1.8682,1.8681,1.8684,1.8684,1.8696,1.8697,1.8684,1.8684,1.8684,0,1.8735,1.8736,1.873,1.8729,1.8726,1.8725,1.8723,1.8717,1.8715,1.871,1.871,1.8708,1.8705,1.8701,1.8695,1.8692,1.8689,1.8693,1.8688,1.869,1.8688,1.8688,1.8688,1.8694,1.8694,1.8694,1.8694,0,1.8744,1.8742,1.874,1.8738,1.8736,1.8733,1.873,1.873,1.8723,1.8722,1.8719,1.8717,1.8713,1.871,1.8706,1.8703,1.8697,1.8697,1.8697,1.8698,1.87,1.8699,1.8685,1.8696,1.8696,1.8696,1.8696,1.8695,1.8752,1.8752,1.8748,1.8746,1.8744,1.8741,1.8741,1.8737,1.8735,1.8731,1.8728,1.8726,1.8722,1.8716,1.8713,1.8712,1.8709,1.8709,1.8709,1.8709,1.871,1.8702,1.8711,1.8711,1.8711,1.8711,1.8711,0,1.876,1.8757,1.8756,1.8752,1.8751,1.8748,1.8744,1.8743,1.8742,1.8739,1.8737,1.8734,1.8732,1.8727,1.8724,1.8723,1.8721,1.8723,1.8722,1.8721,1.8713,1.8713,1.8725,1.8725,1.8725,1.8725,1.8725,1.8725,1.8764,1.8764,1.8761,1.876,1.8757,1.8756,1.8755,1.8752,1.875,1.8748,1.8746,1.8743,1.8739,1.8736,1.8734,1.8732,1.8731,1.8734,1.8731,1.8723,1.8722,1.872,1.872,1.8734,1.8734,1.874,1.874,1.874]},{"header":{"parameterUnit":"m.s-1","parameterCategory":1,"la1":30.2991,"la2":30.254,"lo1":-89.0895,"lo2":-89.0444,"dy":0.0017,"dx":0.0017,"nx":28,"ny":28,"refTime":"2023-10-15T09:00:00:Z","depth":0,"parameterNumber":3,"parameterNumberName":"V-component_of_WINDS"},"data":[0,0,0,0,0,0,0,0,0,0,0,0,0,0,0,0,0,0,0,0,0,0,0,0,0,0,0,0,0,0,0,0,0,0,0,0,0,0,0,0,0,0,0,0,0,0,0,0,0,0,0,0,0,0,0,0,0,0,-7.9231,-7.9233,0,-7.9434,-7.9436,-7.9439,-7.9326,-7.932,-7.9315,-7.9309,-7.951,-7.952,-7.9531,0,0,0,0,0,0,0,0,0,0,0,0,0,-7.8738,-7.8748,-7.923,-7.9233,-7.9236,-7.9434,-7.9436,-7.9439,-7.9327,-7.932,-7.9313,-7.9307,-7.9507,-7.9519,-7.9532,0,0,0,0,0,0,0,0,0,0,0,0,0,-7.8948,-7.8751,-7.923,-7.9204,-7.9203,-7.9433,-7.9436,-7.944,-7.9328,-7.932,-7.9311,-7.9304,-7.9502,-7.9518,-7.9533,-7.9799,0,0,-7.9582,-7.9589,0,0,0,0,0,0,0,0,-7.8936,-7.8966,-7.9205,-7.9206,-7.9206,-7.9346,-7.9336,-7.956,-7.933,-7.9281,-7.9309,-7.9299,-7.9462,-7.948,-7.9537,-7.9808,-7.9817,-7.9583,-7.9593,-7.96,-7.9604,0,0,0,0,0,0,0,-7.8922,-7.8957,-7.9311,-7.9208,-7.9209,-7.9179,-7.92,-7.9378,-7.9415,-7.9284,-7.9277,-7.9303,-7.946,-7.9522,-7.9541,-7.982,-7.9583,-7.9597,-7.9607,-7.9613,-8.0319,-8.0328,0,0,0,0,0,0,-7.891,-7.8945,-7.9304,-7.9317,-7.9048,-7.9195,-7.9218,-7.9309,-7.9413,-7.9421,-7.9309,-7.9297,-7.9499,-7.9522,-7.9547,-7.9866,-7.9599,-7.9614,-7.9623,-8.031,-8.0321,-8.0331,0,0,0,0,0,0,-7.89,-7.8943,-7.9296,-7.9129,-7.9172,-7.9213,-7.9316,-7.9318,-7.9379,-7.9432,-7.9438,-7.9366,-7.9493,-7.9525,-7.9738,-7.9871,-7.9621,-7.9636,-8.0299,-8.0314,-8.0326,-8.0505,0,0,0,0,0,0,-7.8886,-7.894,-7.9043,-7.9132,-7.9181,-7.9486,-7.9324,-7.9328,-7.9408,-7.9393,-7.9487,-7.9494,-7.9489,-7.9715,-7.9754,-7.9889,-7.9648,-8.0287,-8.0306,-8.0322,-8.0487,-8.0523,-8.0554,0,0,0,0,0,-7.8869,-7.9083,-7.9049,-7.9093,-7.9311,-7.9494,-7.9522,-7.9514,-7.9419,-7.9522,-7.9556,-7.9491,-7.985,-7.9738,-7.978,-7.9922,-8.0279,-8.03,-8.0321,-8.0472,-8.0516,-8.0553,0,0,0,0,0,0,-7.9005,-7.9094,-7.9057,-7.9307,-7.9394,-7.9475,-7.9604,-7.956,-7.9674,-7.9655,-7.9637,-7.9659,-7.9881,-7.9922,-7.9795,-8.0184,-8.0049,-8.008,-8.015,-8.0192,-8.0225,-8.0211,-7.9661,0,0,0,0,0,-7.9065,-7.9208,-7.9277,-7.9491,-7.9537,-7.9564,-7.9643,-7.9629,-7.9717,-7.9753,-7.9802,-7.9889,-8.0021,-8.0108,-8.0233,-8.0492,-8.0511,-8.061,-8.0644,-8.0671,-8.0698,-8.0839,-8.0884,-8.04,-8.04,-8.0399,0,0,-7.9188,-7.9255,-7.9346,-7.952,-7.9586,-7.9733,-7.9595,-7.9756,-7.9865,-7.9776,-7.9982,-8.0022,-8.0116,-8.0354,-8.0461,-8.0395,-8.0835,-8.0697,-8.0719,-8.0731,-8.0865,-8.0911,-8.0952,-8.0414,-8.0412,-8.0409,0,0,-7.949,-7.9554,-7.9741,-7.981,-7.9913,-7.9929,-7.9974,-8.0062,-8.0086,-8.0292,-8.023,-8.0357,-8.0585,-8.0656,-8.0721,-8.1051,-8.0996,-8.1091,-8.1266,-8.1404,-8.1442,-8.1476,-8.1595,-8.1638,-8.1118,-8.1118,-8.1119,0,-7.963,-7.9852,-7.9841,-8.0009,-8.0087,-8.0017,-8.0204,-8.0271,-8.0408,-8.0463,-8.0387,-8.0674,-8.0732,-8.0986,-8.1067,-8.1122,-8.1172,-8.1081,-8.1438,-8.1472,-8.1503,-8.1616,-8.1661,-8.1129,-8.1128,-8.1127,-8.1126,0,-8.002,-8.0175,-8.0313,-8.0451,-8.0544,-8.0721,-8.0735,-8.083,-8.0808,-8.0832,-8.1043,-8.1111,-8.1249,-8.1308,-8.1287,-8.156,-8.1516,-8.144,-8.1304,-8.1561,-8.1667,-8.171,-8.1145,-8.1141,-8.1138,-8.1135,0,0,-8.0414,-8.0545,-8.0596,-8.0658,-8.0766,-8.0885,-8.1057,-8.1195,-8.1278,-8.1374,-8.1518,-8.1714,-8.1645,-8.1719,-8.1705,-8.1826,-8.2085,-8.1735,-8.1737,-8.1799,-8.2391,-8.2449,-8.25,-8.2048,-8.2056,-8.2063,-8.2383,0,-8.0724,-8.103,-8.1025,-8.1308,-8.1451,-8.1386,-8.1536,-8.1618,-8.1645,-8.1768,-8.1796,-8.1936,-8.1833,-8.1878,-8.1995,-8.2029,-8.2204,-8.2005,-8.2182,-8.2188,-8.2163,-8.2555,-8.2617,-8.2916,-8.2425,-8.2432,-8.2437,0,-8.1126,-8.124,-8.1539,-8.1628,-8.1687,-8.1823,-8.1949,-8.2068,-8.2159,-8.217,-8.2255,-8.2223,-8.2396,-8.2255,-8.2494,-8.236,-8.2431,-8.2459,-8.247,-8.2487,-8.2329,-8.2584,-8.3011,-8.3057,-8.2502,-8.2496,-8.2492,0,-8.1386,-8.1613,-8.1821,-8.1876,-8.1985,-8.2082,-8.2131,-8.2214,-8.2297,-8.2407,-8.2461,-8.2587,-8.2657,-8.2755,-8.2757,-8.2654,-8.3,-8.2858,-8.3013,-8.3014,-8.309,-8.3086,-8.3536,-8.3134,-8.3133,-8.3132,-8.3131,0,-8.1734,-8.1919,-8.194,-8.2068,-8.2274,-8.2265,-8.2468,-8.2507,-8.2582,-8.2715,-8.2665,-8.2791,-8.2785,-8.2912,-8.2914,-8.3113,-8.3143,-8.3157,-8.3155,-8.3163,-8.3162,-8.321,-8.319,-8.3144,-8.3141,-8.3139,-8.3137,0,-8.2059,-8.208,-8.2304,-8.2389,-8.2414,-8.2562,-8.2634,-8.2755,-8.2777,-8.2947,-8.2986,-8.3021,-8.3168,-8.318,-8.3349,-8.335,-8.3592,-8.3566,-8.3562,-8.3559,-8.3714,-8.37,-8.4213,-8.4281,-8.3832,-8.3837,-8.384,0,-8.2281,-8.2422,-8.2524,-8.2611,-8.2667,-8.2808,-8.2894,-8.289,-8.2981,-8.3096,-8.3204,-8.3347,-8.3461,-8.3699,-8.3738,-8.3867,-8.3846,-8.4016,-8.3864,-8.3868,-8.385,-8.3843,-8.3857,-8.4046,-8.4051,-8.4055,-8.4059,0,-8.2672,-8.2676,-8.2803,-8.2936,-8.3041,-8.3143,-8.3239,-8.3313,-8.332,-8.3425,-8.3577,-8.3666,-8.3841,-8.3983,-8.411,-8.4157,-8.4111,-8.4106,-8.4149,-8.4159,-8.4152,-8.416,-8.3645,-8.4095,-8.4091,-8.4088,-8.4087,-8.4085,-8.2954,-8.3077,-8.3169,-8.3313,-8.3385,-8.3476,-8.3595,-8.3634,-8.3761,-8.3906,-8.3894,-8.4063,-8.4149,-8.4316,-8.4373,-8.4503,-8.4445,-8.4507,-8.4523,-8.4539,-8.4557,-8.413,-8.4526,-8.4525,-8.4524,-8.4523,-8.4522,0,-8.3344,-8.3401,-8.3533,-8.3671,-8.3784,-8.3731,-8.3835,-8.3932,-8.4082,-8.4168,-8.4283,-8.4457,-8.4596,-8.4646,-8.478,-8.4875,-8.4857,-8.491,-8.4904,-8.4916,-8.46,-8.455,-8.4923,-8.4923,-8.4923,-8.4923,-8.4923,-8.4923,-8.3561,-8.3769,-8.3784,-8.4026,-8.4079,-8.4246,-8.431,-8.4394,-8.4463,-8.4662,-8.4777,-8.481,-8.4882,-8.5021,-8.5145,-8.5156,-8.5209,-8.5273,-8.5275,-8.4978,-8.4938,-8.49,-8.4853,-8.5284,-8.5284,-8.558,-8.5583,-8.5585]}]]